KQ4NAL Weather Reports


Display with metric or nautical units.
time (UTC)temp
F
wind
direction
speed
MPH
gust
MPH
rain 1hr
in
rain 24hr
in
rain mn
in
humidity
%
barometer
mb
20260901161506 90 340 0.0 0.0 0.00 0.00 0.00 64 1020.1
20260901161001 91 243 4.0 5.0 0.00 0.00 0.00 62 1020.0
20260901160457 90 218 6.0 9.0 0.00 0.00 0.00 62 1020.2
20260901155955 89 333 1.0 2.0 0.00 0.00 0.00 64 1020.2
20260901155450 90 297 3.0 3.0 0.00 0.00 0.00 64 1020.5
20260901154947 89 310 4.0 5.0 0.00 0.00 0.00 65 1020.4
20260901154446 89 231 7.0 9.0 0.00 0.00 0.00 65 1020.3
20260901153940 89 316 3.0 3.0 0.00 0.00 0.00 64 1020.2
20260901153430 89 349 3.0 6.0 0.00 0.00 0.00 66 1020.1
20260901152929 89 290 3.0 3.0 0.00 0.00 0.00 67 1020.4
20260901152429 88 358 0.0 1.0 0.00 0.00 0.00 66 1020.3
20260901151929 90 303 2.0 2.0 0.00 0.00 0.00 66 1020.2
20260901151424 90 334 0.0 0.0 0.00 0.00 0.00 66 1020.6
20260901150923 88 337 1.0 1.0 0.00 0.00 0.00 68 1020.4
20260901150421 88 11 1.0 1.0 0.00 0.00 0.00 68 1020.3
20260901145918 88 301 2.0 2.0 0.00 0.00 0.00 68 1020.4
20260901145413 87 329 3.0 3.0 0.00 0.00 0.00 70 1020.3
20260901144908 86 305 3.0 5.0 0.00 0.00 0.00 71 1020.4
20260901144404 86 233 3.0 5.0 0.00 0.00 0.00 73 1020.6
20260901143859 86 317 1.0 1.0 0.00 0.00 0.00 75 1020.6
20260901143355 85 338 1.0 2.0 0.00 0.00 0.00 75 1020.4
20260901142852 84 329 3.0 3.0 0.00 0.00 0.00 76 1020.4
20260901142350 85 346 0.0 0.0 0.00 0.00 0.00 77 1020.3
20260901141846 84 306 1.0 2.0 0.00 0.00 0.00 78 1020.6
20260901141341 83 292 4.0 5.0 0.00 0.00 0.00 78 1020.5
20260901140840 84 345 1.0 1.0 0.00 0.00 0.00 77 1020.5
20260901140338 82 343 0.0 0.0 0.00 0.00 0.00 80 1020.5
20260901135833 82 207 3.0 5.0 0.00 0.00 0.00 81 1020.5
20260901135328 81 280 0.0 0.0 0.00 0.00 0.00 81 1020.4
20260901134824 81 62 2.0 2.0 0.00 0.00 0.00 82 1020.4
20260901134319 81 305 2.0 2.0 0.00 0.00 0.00 82 1020.4
20260901133813 80 335 2.0 2.0 0.00 0.00 0.00 84 1020.1
20260901133312 79 325 1.0 1.0 0.00 0.00 0.00 84 1020.1
20260901132811 79 284 3.0 3.0 0.00 0.00 0.00 85 1020.4
20260901132307 79 300 2.0 2.0 0.00 0.00 0.00 86 1020.5
20260901131805 79 272 2.0 2.0 0.00 0.00 0.00 86 1020.4
20260901131300 78 263 4.0 6.0 0.00 0.00 0.00 85 1020.6
20260901130755 77 310 1.0 2.0 0.00 0.00 0.00 88 1020.8
20260901130255 77 358 1.0 1.0 0.00 0.00 0.00 88 1020.6
20260901125753 76 338 0.0 1.0 0.00 0.00 0.00 90 1020.8
20260901125247 76 348 1.0 1.0 0.00 0.00 0.00 91 1020.7
20260901124742 74 6 1.0 2.0 0.00 0.00 0.00 94 1020.8
20260901124237 74 339 1.0 2.0 0.00 0.00 0.00 95 1020.6
20260901123736 73 311 0.0 0.0 0.00 0.00 0.00 97 1020.7
20260901123231 72 285 0.0 0.0 0.00 0.00 0.00 99 1020.6
20260901122730 72 344 0.0 0.0 0.00 0.00 0.00 99 1020.7
20260901122225 71 354 0.0 0.0 0.00 0.00 0.00 99 1020.7
20260901121719 71 8 0.0 0.0 0.00 0.00 0.00 99 1020.8
20260901121215 70 351 0.0 0.0 0.00 0.00 0.00 99 1020.6
20260901120714 70 345 0.0 0.0 0.00 0.00 0.00 99 1020.5
20260901120209 70 340 0.0 0.0 0.00 0.00 0.00 99 1020.6
20260901115704 69 346 0.0 0.0 0.00 0.00 0.00 99 1020.5
20260901115200 69 344 0.0 0.0 0.00 0.00 0.00 99 1020.3
20260901114657 68 344 0.0 0.0 0.00 0.00 0.00 99 1020.2
20260901114156 68 344 0.0 0.0 0.00 0.00 0.00 99 1020.2
20260901113655 68 346 0.0 0.0 0.00 0.00 0.00 99 1020.3
20260901113151 68 347 0.0 0.0 0.00 0.00 0.00 99 1020.4
20260901112645 68 346 0.0 0.0 0.00 0.00 0.00 99 1020.0
20260901112144 68 352 0.0 0.0 0.00 0.00 0.00 99 1020.1
20260901111644 68 345 0.0 0.0 0.00 0.00 0.00 99 1019.8
20260901111144 68 348 0.0 0.0 0.00 0.00 0.00 99 1019.9
20260901110639 69 345 0.0 0.0 0.00 0.00 0.00 99 1019.7
20260901110134 69 348 0.0 0.0 0.00 0.00 0.00 99 1020.0
20260901105630 69 353 0.0 0.0 0.00 0.00 0.00 99 1019.5
20260901105129 68 353 0.0 0.0 0.00 0.00 0.00 99 1019.6
20260901104626 68 355 0.0 0.0 0.00 0.00 0.00 99 1019.5
20260901104121 68 345 0.0 0.0 0.00 0.00 0.00 99 1019.5
20260901103620 68 341 0.0 0.0 0.00 0.00 0.00 99 1019.6
20260901103116 69 346 0.0 0.0 0.00 0.00 0.00 99 1019.5
20260901102610 69 346 0.0 0.0 0.00 0.00 0.00 99 1019.4
20260901102105 69 346 0.0 0.0 0.00 0.00 0.00 99 1019.5
20260901101601 68 345 0.0 0.0 0.00 0.00 0.00 99 1019.5
20260901101100 69 345 0.0 0.0 0.00 0.00 0.00 99 1019.3
20260901100600 69 345 0.0 0.0 0.00 0.00 0.00 99 1019.5
20260901100055 69 349 0.0 0.0 0.00 0.00 0.00 99 1019.4
20260901095553 69 345 0.0 0.0 0.00 0.00 0.00 99 1019.4
20260901095050 69 348 0.0 0.0 0.00 0.00 0.00 99 1019.2
20260901094546 69 345 0.0 0.0 0.00 0.00 0.00 99 1019.3
20260901094045 69 344 0.0 0.0 0.00 0.00 0.00 99 1019.1
20260901093540 69 344 0.0 0.0 0.00 0.00 0.00 99 1019.0
20260901093035 69 347 0.0 0.0 0.00 0.00 0.00 99 1019.0
20260901092531 69 347 0.0 0.0 0.00 0.00 0.00 99 1019.1
20260901092026 69 347 0.0 0.0 0.00 0.00 0.00 99 1019.2
20260901091521 70 347 0.0 0.0 0.00 0.00 0.00 99 1019.1
20260901091016 69 348 0.0 0.0 0.00 0.00 0.00 99 1019.1
20260901090515 69 345 0.0 0.0 0.00 0.00 0.00 99 1018.9
20260901090011 69 345 0.0 0.0 0.00 0.00 0.00 99 1019.1
20260901085507 69 343 0.0 0.0 0.00 0.00 0.00 99 1019.0
20260901085003 69 345 0.0 0.0 0.00 0.00 0.00 99 1018.9
20260901084458 70 344 0.0 0.0 0.00 0.00 0.00 99 1018.9
20260901083954 70 344 0.0 0.0 0.00 0.00 0.00 99 1018.9
20260901083449 69 344 0.0 0.0 0.00 0.00 0.00 99 1018.9
20260901082946 69 344 0.0 0.0 0.00 0.00 0.00 99 1018.7
20260901082441 70 344 0.0 0.0 0.00 0.00 0.00 99 1018.8
20260901081936 70 344 0.0 0.0 0.00 0.00 0.00 99 1018.8
20260901081431 70 344 0.0 0.0 0.00 0.00 0.00 99 1018.8
20260901080926 70 344 0.0 0.0 0.00 0.00 0.00 99 1018.5
20260901080421 70 346 0.0 0.0 0.00 0.00 0.00 99 1018.5
20260901075921 70 346 0.0 0.0 0.00 0.00 0.00 99 1018.5
20260901075416 70 346 0.0 0.0 0.00 0.00 0.00 99 1018.5
20260901074915 70 346 0.0 0.0 0.00 0.00 0.00 99 1018.3
20260901074410 70 346 0.0 0.0 0.00 0.00 0.00 99 1018.3
20260901073906 71 347 0.0 0.0 0.00 0.00 0.00 99 1018.4
20260901073402 71 343 0.0 0.0 0.00 0.00 0.00 99 1018.2
20260901072857 71 341 0.0 0.0 0.00 0.00 0.00 99 1018.2
20260901072357 71 345 0.0 0.0 0.00 0.00 0.00 98 1018.4
20260901071852 72 305 0.0 0.0 0.00 0.00 0.00 98 1018.0
20260901071350 72 346 0.0 0.0 0.00 0.00 0.00 98 1018.2
20260901070850 72 344 0.0 0.0 0.00 0.00 0.00 98 1018.2
20260901070346 72 335 0.0 0.0 0.00 0.00 0.00 99 1018.0
20260901065844 72 341 0.0 0.0 0.00 0.00 0.00 99 1017.9
20260901065340 72 346 0.0 0.0 0.00 0.00 0.00 99 1018.2
20260901064835 72 346 0.0 0.0 0.00 0.00 0.00 99 1018.1
20260901064331 72 343 0.0 0.0 0.00 0.00 0.00 99 1018.2
20260901063829 72 337 0.0 0.0 0.00 0.00 0.00 99 1018.3
20260901063325 72 346 0.0 0.0 0.00 0.00 0.00 99 1018.1
20260901062816 72 345 0.0 0.0 0.00 0.00 0.00 99 1018.3
20260901062311 72 335 0.0 0.0 0.00 0.00 0.00 99 1018.4
20260901061807 72 341 0.0 0.0 0.00 0.00 0.00 99 1018.4
20260901061306 71 344 0.0 0.0 0.00 0.00 0.00 99 1018.3
20260901060801 71 338 0.0 0.0 0.00 0.00 0.00 99 1018.5
20260901060257 71 333 0.0 0.0 0.00 0.00 0.00 99 1018.7
20260901055752 71 344 0.0 0.0 0.00 0.00 0.00 99 1018.8
20260901055249 71 344 0.0 0.0 0.00 0.00 0.00 99 1018.9
20260901054746 72 352 0.0 0.0 0.00 0.00 0.00 99 1018.9
20260901054242 72 338 0.0 0.0 0.00 0.00 0.00 99 1018.9
20260901053738 72 338 0.0 0.0 0.00 0.00 0.00 99 1018.9
20260901053233 71 329 0.0 0.0 0.00 0.00 0.00 99 1018.9
20260901052728 71 337 0.0 0.0 0.00 0.00 0.00 99 1019.0
20260901052224 72 339 0.0 0.0 0.00 0.00 0.00 99 1019.2
20260901051722 71 344 0.0 0.0 0.00 0.00 0.00 99 1019.3
20260901051216 71 343 0.0 0.0 0.00 0.00 0.00 99 1019.3
20260901050712 71 344 0.0 0.0 0.00 0.00 0.00 99 1019.3
20260901050208 71 344 0.0 0.0 0.00 0.00 0.00 99 1019.2
20260901045703 72 336 0.0 0.0 0.00 0.00 0.00 99 1019.4
20260901045157 72 347 0.0 0.0 0.00 0.00 0.00 99 1019.3
20260901044652 72 347 0.0 0.0 0.00 0.00 0.00 99 1019.3
20260901044149 72 347 0.0 0.0 0.00 0.00 0.00 99 1019.2
20260901043644 72 349 0.0 0.0 0.00 0.00 0.00 99 1019.3
20260901043140 72 353 0.0 0.0 0.00 0.00 0.00 99 1019.4
20260901042639 72 343 0.0 0.0 0.00 0.00 0.00 99 1019.3
20260901042134 72 343 0.0 0.0 0.00 0.00 0.00 99 1019.3
20260901041630 72 340 0.0 0.0 0.00 0.00 0.00 99 1019.3
20260901041125 72 345 0.0 0.0 0.00 0.00 0.00 99 1019.4
20260901040624 72 344 0.0 0.0 0.00 0.00 0.00 99 1019.4
20260901040118 72 346 0.0 0.0 0.00 0.00 0.00 99 1019.4
20260901035616 73 348 0.0 0.0 0.00 0.00 0.00 99 1019.1
20260901035115 73 340 0.0 0.0 0.00 0.00 0.00 99 1019.2
20260901034615 73 339 0.0 0.0 0.00 0.00 0.00 99 1019.5
20260901034109 73 340 0.0 0.0 0.00 0.00 0.00 99 1019.5
20260901033608 73 340 0.0 0.0 0.00 0.00 0.00 99 1019.4
20260901033103 73 340 0.0 0.0 0.00 0.00 0.00 98 1019.5
20260901032601 73 340 0.0 0.0 0.00 0.00 0.00 98 1019.4
20260901032057 73 340 0.0 0.0 0.00 0.00 0.00 98 1019.5
20260901031552 73 340 0.0 0.0 0.00 0.00 0.00 98 1019.5
20260901031048 73 340 0.0 0.0 0.00 0.00 0.00 98 1019.5
20260901030547 73 340 0.0 0.0 0.00 0.00 0.00 98 1019.4
20260901030043 73 340 0.0 0.0 0.00 0.00 0.00 97 1019.6
20260901025537 73 340 0.0 0.0 0.00 0.00 0.00 97 1019.5
20260901025036 74 340 0.0 0.0 0.00 0.00 0.00 97 1019.4
20260901024532 74 340 0.0 0.0 0.00 0.00 0.00 97 1019.5
20260901024030 74 341 0.0 0.0 0.00 0.00 0.00 97 1019.5
20260901023524 74 341 0.0 0.0 0.00 0.00 0.00 97 1019.4
20260901023019 74 340 0.0 0.0 0.00 0.00 0.00 96 1019.5
20260901022509 74 340 0.0 0.0 0.00 0.00 0.00 96 1019.4
20260901022009 74 341 0.0 0.0 0.00 0.00 0.00 96 1019.5
20260901021505 74 341 0.0 0.0 0.00 0.00 0.00 96 1019.4
20260901021001 74 341 0.0 0.0 0.00 0.00 0.00 95 1019.3
20260901020456 75 341 0.0 0.0 0.00 0.00 0.00 95 1019.4
20260901015954 75 341 0.0 0.0 0.00 0.00 0.00 95 1019.5
20260901015451 75 341 0.0 0.0 0.00 0.00 0.00 94 1019.3
20260901014951 75 341 0.0 0.0 0.00 0.00 0.00 94 1019.3
20260901014447 75 346 0.0 0.0 0.00 0.00 0.00 93 1019.2
20260901013942 75 346 0.0 0.0 0.00 0.00 0.00 92 1019.3
20260901013438 76 346 0.0 0.0 0.00 0.00 0.00 92 1019.4
20260901012934 76 346 0.0 0.0 0.00 0.00 0.00 91 1019.1
20260901012434 76 346 0.0 0.0 0.00 0.00 0.00 91 1019.1
20260901011929 76 346 0.0 0.0 0.00 0.00 0.00 91 1019.0
20260901011426 76 346 0.0 0.0 0.00 0.00 0.00 90 1018.9
20260901010923 77 346 0.0 0.0 0.00 0.00 0.00 90 1018.9
20260901010419 77 346 0.0 0.0 0.00 0.00 0.00 90 1018.8
20260901005918 77 346 0.0 0.0 0.00 0.00 0.00 89 1018.7
20260901005413 77 347 0.0 0.0 0.00 0.00 0.00 89 1018.8
20260901004908 78 347 0.0 0.0 0.00 0.00 0.00 88 1018.4
20260901004407 78 347 0.0 0.0 0.00 0.00 0.00 88 1018.4
20260901003902 78 348 0.0 0.0 0.00 0.00 0.00 88 1018.4
20260901003357 78 345 0.0 0.0 0.00 0.00 0.00 87 1018.5
20260901002855 79 345 0.0 0.0 0.00 0.00 0.00 86 1018.3
20260901002355 79 345 0.0 0.0 0.00 0.00 0.00 85 1018.2
20260901001849 80 345 0.0 0.0 0.00 0.00 0.00 84 1018.3
20260901001345 81 329 0.0 0.0 0.00 0.00 0.00 83 1018.1
20260901000840 81 347 0.0 0.0 0.00 0.00 0.00 80 1018.0
20260901000330 82 345 0.0 0.0 0.00 0.00 0.00 80 1017.9
20260831235828 83 349 0.0 0.0 0.00 0.00 0.00 79 1017.8
20260831235325 84 350 0.0 0.0 0.00 0.00 0.00 74 1018.1
20260831234824 84 347 0.0 0.0 0.00 0.00 0.00 73 1017.8
20260831234319 85 342 0.0 0.0 0.00 0.00 0.00 72 1017.9
20260831233815 85 338 0.0 0.0 0.00 0.00 0.00 71 1017.7
20260831233310 86 308 1.0 1.0 0.00 0.00 0.00 71 1017.9
20260831232805 86 312 2.0 2.0 0.00 0.00 0.00 70 1017.7
20260831232305 86 271 2.0 2.0 0.00 0.00 0.00 69 1017.9
20260831231756 87 330 1.0 1.0 0.00 0.00 0.00 69 1018.0
20260831231253 87 256 0.0 1.0 0.00 0.00 0.00 68 1017.8
20260831230748 88 178 3.0 3.0 0.00 0.00 0.00 67 1018.1
20260831230243 88 349 0.0 0.0 0.00 0.00 0.00 67 1018.0
20260831225742 89 313 1.0 1.0 0.00 0.00 0.00 65 1017.9
20260831225238 89 284 2.0 2.0 0.00 0.00 0.00 64 1018.0
20260831224733 90 287 2.0 2.0 0.00 0.00 0.00 63 1018.3
20260831224228 90 262 3.0 3.0 0.00 0.00 0.00 63 1018.1
20260831223723 90 247 3.0 5.0 0.00 0.00 0.00 61 1018.3
20260831223220 90 251 3.0 5.0 0.00 0.00 0.00 62 1018.2
20260831222715 90 225 4.0 5.0 0.00 0.00 0.00 62 1018.5
20260831222211 90 286 3.0 3.0 0.00 0.00 0.00 62 1018.4
20260831221706 90 235 1.0 2.0 0.00 0.00 0.00 63 1018.4
20260831221201 91 235 3.0 6.0 0.00 0.00 0.00 63 1018.6
20260831220656 91 230 4.0 6.0 0.00 0.00 0.00 61 1018.8
20260831220151 91 312 1.0 2.0 0.00 0.00 0.00 61 1018.4
20260831215641 91 246 2.0 2.0 0.00 0.00 0.00 62 1018.6
20260831215136 91 220 3.0 3.0 0.00 0.00 0.00 61 1018.7
20260831214633 91 339 3.0 3.0 0.00 0.00 0.00 59 1018.7
20260831214129 91 169 4.0 5.0 0.00 0.00 0.00 61 1018.7
20260831213626 93 256 1.0 5.0 0.00 0.00 0.00 57 1018.7
20260831213120 93 266 1.0 2.0 0.00 0.00 0.00 58 1018.7
20260831212616 93 341 3.0 6.0 0.00 0.00 0.00 57 1018.6
20260831212112 93 345 1.0 2.0 0.00 0.00 0.00 56 1018.7
20260831211606 92 273 0.0 0.0 0.00 0.00 0.00 59 1018.6
20260831211105 92 228 3.0 5.0 0.00 0.00 0.00 59 1018.9
20260831210600 91 309 1.0 1.0 0.00 0.00 0.00 61 1018.8
20260831210057 92 209 6.0 7.0 0.00 0.00 0.00 58 1018.9
20260831205556 94 319 3.0 5.0 0.00 0.00 0.00 55 1018.8
20260831205052 93 318 1.0 1.0 0.00 0.00 0.00 55 1019.0
20260831204548 95 354 2.0 2.0 0.00 0.00 0.00 54 1018.8
20260831204046 95 314 0.0 0.0 0.00 0.00 0.00 55 1019.2
20260831203541 94 346 1.0 2.0 0.00 0.00 0.00 55 1019.1
20260831203040 94 255 2.0 3.0 0.00 0.00 0.00 55 1019.2
20260831202539 93 308 3.0 3.0 0.00 0.00 0.00 54 1019.2
20260831202038 94 264 4.0 9.0 0.00 0.00 0.00 53 1019.2
20260831201537 94 293 1.0 2.0 0.00 0.00 0.00 54 1019.3
20260831201033 94 252 4.0 5.0 0.00 0.00 0.00 55 1019.4
20260831200529 94 271 3.0 5.0 0.00 0.00 0.00 55 1019.5
20260831200024 94 320 0.0 0.0 0.00 0.00 0.00 54 1019.6
20260831195520 94 281 3.0 5.0 0.00 0.00 0.00 56 1019.3
20260831195019 93 264 4.0 7.0 0.00 0.00 0.00 55 1019.7
20260831194514 92 333 3.0 3.0 0.00 0.00 0.00 59 1019.6
20260831194009 93 316 0.0 1.0 0.00 0.00 0.00 57 1019.7
20260831193504 91 344 0.0 1.0 0.00 0.00 0.00 60 1019.5
20260831192959 90 340 1.0 1.0 0.00 0.00 0.00 60 1019.7
20260831192454 89 351 0.0 0.0 0.00 0.00 0.00 62 1020.0
20260831191949 91 292 1.0 2.0 0.00 0.00 0.00 60 1020.1
20260831191445 91 345 2.0 2.0 0.00 0.00 0.00 60 1020.2
20260831190941 93 292 4.0 6.0 0.00 0.00 0.00 57 1020.0
20260831190436 93 267 4.0 6.0 0.00 0.00 0.00 58 1020.0
20260831185934 94 249 5.0 6.0 0.00 0.00 0.00 60 1020.1
20260831185431 93 345 0.0 0.0 0.00 0.00 0.00 58 1020.1
20260831184931 92 25 3.0 3.0 0.00 0.00 0.00 61 1020.4
20260831184431 93 0 0.0 0.0 0.00 0.00 0.00 57 1020.2
20260831183927 93 207 8.0 9.0 0.00 0.00 0.00 55 1020.3
20260831183426 94 0 4.0 6.0 0.00 0.00 0.00 58 1020.3
20260831182925 91 343 2.0 3.0 0.00 0.00 0.00 65 1020.1
20260831182420 92 263 1.0 1.0 0.00 0.00 0.00 63 1020.3
20260831181916 91 342 1.0 1.0 0.00 0.00 0.00 60 1020.3
20260831181411 91 331 4.0 6.0 0.00 0.00 0.00 62 1020.4
20260831180906 91 312 2.0 3.0 0.00 0.00 0.00 64 1020.2
20260831180406 91 352 1.0 2.0 0.00 0.00 0.00 62 1020.3
20260831175905 92 280 3.0 3.0 0.00 0.00 0.00 59 1020.4
20260831175401 91 231 4.0 5.0 0.00 0.00 0.00 62 1020.4
20260831174857 92 319 2.0 3.0 0.00 0.00 0.00 60 1020.6
20260831174353 92 313 1.0 2.0 0.00 0.00 0.00 59 1020.8
20260831173851 92 3 5.0 7.0 0.00 0.00 0.00 60 1020.5
20260831173346 93 319 2.0 2.0 0.00 0.00 0.00 61 1020.8
20260831172841 92 201 2.0 3.0 0.00 0.00 0.00 61 1020.8
20260831172337 92 272 6.0 7.0 0.00 0.00 0.00 61 1020.7
20260831171836 92 277 6.0 8.0 0.00 0.00 0.00 60 1020.7
20260831171333 91 319 4.0 6.0 0.00 0.00 0.00 61 1020.7
20260831170829 91 323 3.0 5.0 0.00 0.00 0.00 62 1020.9
20260831170325 91 225 6.0 7.0 0.00 0.00 0.00 65 1020.9
20260831165821 91 271 3.0 5.0 0.00 0.00 0.00 62 1020.8
20260831165318 91 15 1.0 2.0 0.00 0.00 0.00 63 1021.0
20260831164814 92 335 3.0 5.0 0.00 0.00 0.00 61 1020.7
20260831164309 89 301 3.0 3.0 0.00 0.00 0.00 64 1021.0
20260831163804 89 324 3.0 3.0 0.00 0.00 0.00 65 1021.0
20260831163300 89 263 1.0 2.0 0.00 0.00 0.00 67 1021.1
20260831162759 89 255 2.0 3.0 0.00 0.00 0.00 67 1021.2
20260831162254 89 275 6.0 9.0 0.00 0.00 0.00 66 1020.8
20260831161748 90 190 7.0 8.0 0.00 0.00 0.00 67 1021.0